Location: Chassagnes
(44.4047°N, 4.1657°E)
Time: 12:30:13
(UTC+00:00)

Cosmos 1244 Rocket - Pass Details

Date: 27 October 2020
Orbit: 954 x 997 km, 82.9° (Epoch: 23 November)

Event Time Altitude Azimuth Distance (km) Brightness Sun altitude
Rises 17:29:28 0° 354° (N) 3,658 7.5 -9.5°
Reaches altitude 10° 17:32:00 10° 357° (N) 2,712 6.8 -10.0°
Maximum altitude 17:38:11 66° 80° (E) 1,060 4.5 -11.1°
Drops below altitude 10° 17:44:23 10° 162° (SSE) 2,724 6.7 -12.2°
Sets 17:46:55 0° 165° (SSE) 3,674 7.4 -12.6°
